Vorticity
nan nan nan nan nan nan nan nan nan nan nan nan nan nan nan nan nan nan nan nan nan nan nan nan nan nan nan nan nan nan nan nan nan nan nan nan nan nan nan nan nan nan nan
nan 7 7 7 7 7 7 8 8 9 8 8 8 8 8 7 8 7 7 10 9 7 9 14 14 13 13 10 8 8 6 6 6 7 7 6 6 4 7 6 7 10 nan
nan 8 8 7 7 7 8 9 8 9 8 7 9 10 10 9 7 7 7 8 11 11 11 12 14 14 13 14 10 9 7 7 7 7 7 6 6 5 8 8 6 4 nan
nan 10 8 6 8 9 9 8 8 7 7 9 9 9 10 10 8 9 7 7 7 10 11 9 14 16 12 13 14 10 9 7 7 7 7 7 8 7 6 6 7 6 nan
nan 10 8 6 9 10 8 7 7 8 8 8 7 8 10 10 10 10 9 8 8 8 10 9 13 17 15 12 15 13 10 7 6 7 8 7 8 8 6 6 7 8 nan
nan 10 8 7 9 8 7 7 8 9 10 9 9 11 10 11 12 13 11 11 11 10 9 10 11 14 17 14 14 16 11 7 6 6 7 7 7 8 9 8 7 7 nan
nan 10 8 8 8 7 7 9 8 9 11 11 10 11 15 14 9 7 11 10 12 11 12 12 11 9 12 16 14 16 14 10 8 6 7 7 7 7 8 9 9 9 nan
nan 8 9 8 8 9 7 8 9 12 9 8 11 9 11 12 5 7 11 9 7 10 9 10 11 12 12 11 14 18 16 16 13 9 6 8 8 8 7 8 9 9 nan
nan 8 9 10 9 10 8 8 7 11 11 7 11 15 7 2 9 11 7 6 7 11 8 7 6 8 11 15 13 14 17 14 16 16 9 8 8 8 7 7 9 11 nan
nan 8 9 9 11 9 8 9 9 10 10 9 11 10 9 8 6 8 6 6 8 7 9 8 6 7 8 8 16 17 13 13 14 15 13 10 9 7 8 8 7 7 nan
nan 8 9 8 11 9 8 8 11 10 11 10 9 8 10 15 9 7 5 8 8 9 9 8 7 8 9 8 8 15 14 12 15 15 13 12 13 9 8 8 8 6 nan
nan 5 8 9 8 8 9 9 9 9 10 11 11 10 11 10 11 10 9 7 10 9 10 11 10 8 8 8 6 5 15 17 11 13 8 5 8 17 15 9 8 7 nan
nan 5 7 10 9 8 9 10 9 9 9 9 10 11 10 10 11 10 9 10 11 11 9 10 11 8 9 9 9 7 13 13 15 14 12 11 5 5 12 15 12 7 nan
nan 7 8 9 9 10 10 11 9 7 9 8 8 12 11 10 10 10 10 9 12 12 8 9 13 13 8 6 9 15 13 25 18 10 12 14 15 16 13 8 13 15 nan
nan 9 9 8 9 10 11 12 9 7 9 10 9 10 11 10 11 11 11 11 11 9 9 11 7 3 6 13 10 17 15 21 33 24 13 11 13 16 15 10 8 12 nan
nan 9 9 8 9 10 10 12 9 9 11 11 8 9 11 10 10 11 11 12 11 12 9 5 7 8 11 11 10 13 17 2 17 39 33 21 18 15 15 19 16 8 nan
nan 10 10 9 7 9 9 11 9 8 9 10 9 9 10 11 11 10 11 12 11 12 11 8 9 13 11 9 11 12 9 6 2 16 32 27 24 25 22 21 22 23 nan
nan 10 10 10 8 8 9 8 9 8 7 7 8 8 12 10 9 11 10 10 12 12 11 11 12 8 9 10 11 11 11 9 4 3 12 17 17 19 20 17 17 22 nan
nan 9 9 9 9 8 9 10 9 9 9 8 8 9 10 10 11 10 9 11 12 12 12 12 10 10 9 7 12 11 9 10 6 1 3 5 7 9 9 11 13 12 nan
nan 9 9 9 10 8 7 8 9 9 10 9 9 9 10 13 13 13 10 9 12 12 12 12 11 9 9 12 14 11 6 8 9 2 1 3 0 -0 3 8 10 11 nan
nan 9 9 10 11 11 11 10 10 9 8 8 8 8 6 6 11 18 17 11 15 13 13 11 11 10 9 9 9 15 13 4 5 8 6 6 5 1 -3 -1 6 9 nan
nan 9 9 10 10 5 8 14 16 11 9 8 8 11 7 4 7 5 10 12 16 17 14 12 11 8 10 13 10 12 15 14 7 7 7 6 9 9 5 -1 5 9 nan
nan 8 9 9 12 6 5 9 14 15 11 11 9 10 12 8 11 8 2 5 4 11 17 12 11 10 10 12 14 11 13 13 10 10 11 7 7 9 7 -1 1 9 nan
nan 8 9 10 10 8 5 9 11 13 10 10 12 9 9 9 13 18 12 9 7 5 9 14 12 13 13 17 20 13 13 13 8 6 14 12 6 6 10 -0 -6 6 nan
nan 9 9 8 9 6 4 13 12 10 8 8 8 9 12 5 6 19 17 10 10 7 3 6 9 8 8 11 24 21 12 17 10 4 9 13 11 6 5 7 -4 -5 nan
nan nan nan nan nan nan nan nan nan nan nan nan nan nan nan nan nan nan nan nan nan nan nan nan nan nan nan nan nan nan nan nan nan nan nan nan nan nan nan nan nan nan nan
CAPE
0 0 0 0 0 0 0 0 0 0 0 0 0 0 0 0 0 0 0 0 0 0 135 1549 1856 1993 1885 1804 1381 1127 984 800 611 520 334 125 42 51 118 137 136 124 193
0 0 0 0 0 0 0 0 0 0 0 0 0 0 0 0 0 0 0 0 0 0 0 141 1383 1877 2033 1830 1571 1247 1048 881 660 517 388 95 29 22 101 105 105 130 148
0 0 0 0 0 0 0 0 0 0 1 0 0 0 0 0 0 0 0 0 0 0 0 98 513 1159 1679 1907 1775 1433 1126 913 736 560 447 257 79 89 108 90 124 113 145
0 0 0 0 0 0 0 0 0 1 1 1 1 0 0 0 0 0 0 0 0 0 0 0 176 541 935 1548 2017 1778 1616 1109 919 714 499 331 211 124 128 111 107 97 110
0 0 0 0 0 0 0 0 1 4 3 2 2 1 1 0 0 0 0 0 0 0 0 0 0 199 254 554 1581 1881 2131 1407 1128 969 647 394 290 206 149 141 122 104 108
0 0 0 0 0 2 1 2 3 1 2 5 4 1 0 0 0 0 0 0 0 0 0 0 0 4 93 140 590 1578 2223 1940 1512 1191 909 562 334 240 224 159 164 158 198
0 0 0 0 0 2 3 4 5 2 1 4 4 4 0 0 0 0 0 0 0 0 0 0 0 0 257 170 129 836 1627 1949 1518 1433 1050 707 415 206 164 157 183 166 220
0 0 0 0 4 5 5 3 5 1 2 5 12 5 6 0 0 0 0 0 0 0 0 0 0 0 4 234 253 14 585 1234 1633 1231 878 657 447 273 252 215 159 172 201
0 0 0 1 5 7 5 2 6 5 10 6 7 12 15 7 8 0 0 0 0 0 0 0 0 0 3 34 277 268 0 55 391 1136 936 634 508 349 277 242 197 212 202
0 0 0 0 4 7 6 4 3 9 8 9 9 13 10 12 20 5 0 0 0 0 0 0 0 0 0 0 5 311 375 0 1 405 845 888 735 520 338 265 202 256 224
0 0 0 1 4 6 5 3 8 3 9 9 11 13 7 5 1 19 8 0 1 0 0 0 0 0 0 0 0 3 226 1 1 12 302 643 678 587 429 351 259 283 287
0 0 1 0 4 4 4 4 5 3 6 7 10 7 11 21 15 20 13 9 11 2 2 0 0 0 0 0 0 0 0 0 1 1 2 81 127 405 408 412 371 350 331
0 0 0 0 0 0 0 1 2 3 6 7 9 8 9 12 10 13 15 14 16 5 3 2 0 0 0 0 0 0 0 0 1 1 0 1 14 25 55 313 362 353 319
0 0 0 0 0 0 1 1 1 3 3 4 4 7 11 11 15 17 16 16 9 8 6 5 0 0 0 0 1 0 0 0 1 1 1 1 0 0 0 27 171 208 256
0 0 0 0 0 0 0 1 1 1 2 3 7 10 6 10 17 15 17 14 17 22 11 3 6 13 0 12 11 2 21 1 1 1 1 1 0 0 1 84 41 31 83
0 0 0 0 0 0 0 0 0 1 2 5 4 4 7 8 5 9 17 14 10 13 16 10 10 11 5 0 3 7 4 1 1 1 1 1 1 1 1 1 4 1 1
0 0 0 0 0 0 0 1 0 1 1 2 5 4 5 8 7 5 10 14 10 12 9 8 12 14 8 2 4 7 9 6 4 2 0 0 0 0 0 1 1 1 1
0 0 0 0 0 0 0 0 1 3 1 2 4 3 0 11 4 3 6 9 9 11 11 7 7 6 9 4 3 5 10 10 8 10 7 5 4 1 1 4 2 0 0
0 0 0 0 0 0 0 0 0 0 0 0 2 3 0 0 0 0 1 6 5 10 8 3 6 7 6 4 2 10 5 10 11 10 8 14 15 8 11 9 4 3 1
0 0 0 0 0 0 0 0 0 0 0 0 0 2 0 0 0 5 1 0 2 3 6 4 2 3 4 2 4 4 6 2 3 7 9 10 14 14 9 9 8 6 4
0 0 0 0 0 0 0 0 0 0 0 0 0 0 2 3 7 6 10 5 0 1 4 3 4 1 1 0 0 5 8 1 1 2 7 6 5 6 8 7 8 10 8
0 0 0 0 0 0 2 2 0 0 0 0 0 0 0 1 0 1 4 8 7 2 1 4 3 2 0 0 0 2 3 3 2 0 3 3 3 7 6 6 10 10 12
0 0 0 0 0 0 4 1 0 0 0 0 0 0 0 0 0 0 0 0 2 8 12 2 3 1 0 0 0 0 3 1 1 0 2 2 1 2 3 8 9 8 10
0 0 0 0 0 0 4 1 0 0 0 0 0 0 0 0 0 0 0 0 0 0 0 2 1 1 0 1 0 1 0 3 2 0 0 0 0 3 3 6 11 10 8
0 0 0 0 0 0 6 2 0 0 0 0 0 0 0 0 1 0 0 0 0 0 1 2 3 7 8 9 5 0 0 0 1 1 0 2 1 0 3 1 2 4 5
0 0 0 0 0 0 0 8 0 0 0 0 0 0 5 1 2 0 0 0 0 0 0 0 0 0 0 1 4 1 3 1 2 0 0 1 1 1 3 1 0 2 0